SKYTERRA 1              
1 37218U 10061A   19265.48582955 -.00000124  00000-0  00000+0 0  9995
2 37218   2.3182 349.0298 0004332 184.9058 260.7128  1.00271612 32563
BREEZE-M R/B            
1 37219U 10061B   19266.42627586  .00000065  00000-0  00000+0 0  9994
2 37219  17.6057 276.2433 5500135  31.4879  36.5854  1.94590494 62866
BREEZE-M DEB [TANK]     
1 37220U 10061C   19266.13262040  .00000476  00000-0  11258-3 0  9991
2 37220  49.3996 279.1087 5492709  84.1578 332.8996  4.79971516154053